ONEWEB-0334 (49200 NORAD) Tracking and Keplerian Element Data

This shows tracking and keplerian element data for the satellite.

Feedback or suggestion? Click here.




ElementValue
Catalog49200
NameONEWEB-0334
Epoch Orbit780
Epoch Day300.83334491
Epoch Year2021
RAAN312.9449
Inclination87.199
Eccentricity0.0022749
Argument of Perigee138.7408
Mean Anonmoly160.1997
Mean Motion14.89657124
Decay Rate0.00030135
L11 49200U 21083Q 21300.83334491 .00030135 00000-0 31255-2 0 9990
L22 49200 87.1990 312.9449 0022749 138.7408 160.1997 14.89657124 7803

Live tracking and technical data element details for ONEWEB-0334 (NORAD 49200). ONEWEB-0334 can be tracked NOW for your location showing map with azimuth and elevation plus other details from your city location.

Track the satellite on the map from your city or location and see movement details for azimuth, elevation, latitude, longitude, range, height, and movement on the map or in text.







IsCatalogInMostPopularTable: catalog: 49200, numindb: 10
Update: records affected: 1



GetName: 49200 ONEWEB-0334

Hit Count: updated at: Thu, 28 Oct 2021 10:52:39 GMT